Regional Weather Roundup
Issued by NWS

Home | Current Version | Previous Version | Text Only | Print | Product List | Glossary On
Versions: 1 2 3 4 5 6 7 8 9 10 11 12 13 14 15 16 17 18 19 20 21 22 23 24 25 26 27 28 29 30 31 32 33 34 35 36 37 38 39 40 41 42 43 44 45 46 47 48 49 50
000
ASPQ40 PGUM 210112
RWRPQ
WEATHER ROUNDUP FOR THE MARIANAS AND MICRONESIA
NATIONAL WEATHER SERVICE TIYAN GU
1100 AM CHST TUE OCT 21 2014

GUZ001>004-210200-
MARIANA ISLANDS-

CITY           SKY/WX    TMP DP  RH WIND       PRES   REMARKS
GUAM AIRPORT   CLOUDY    86  77  74 VRB6      29.87F HX  97
ANDERSEN AFB   MOSUNNY   84  75  74 NE10      29.87F HX  92
ROTA AIRPORT   MOSUNNY   84  75  74 NE9       29.87F HX  92
TINIAN AP      MOSUNNY   86  75  70 E7        29.84F HX  95
SAIPAN AP      SUNNY     88 N/A N/A E6        29.86F

$$

PMZ161-210200-
REPUBLIC OF PALAU-

CITY           SKY/WX    TMP DP  RH WIND       PRES   REMARKS
KOROR AP       PTSUNNY   86  77  74 N5        29.90S HX  97
KOROR WSO      CLOUDY    88  77  70 N3        29.89S HX 100

$$

PMZ171>174-210200-
FEDERATED STATES OF MICRONESIA-

CITY           SKY/WX    TMP DP  RH WIND       PRES   REMARKS
YAP AIRPORT    PTSUNNY   88  79  74 N9        29.87S HX 102
CHUUK AP       MOSUNNY   88  79  74 VRB3      29.83F HX 102
POHNPEI AP     MOSUNNY   88  79  74 NW6       29.83S HX 102
POHNPEI WSO    PTSUNNY   91  81  70 NW2       29.85F HX 110
KOSRAE AP      PTSUNNY   88  77  70 N10       29.82F HX 100

$$

PMZ181-210200-
REPUBLIC OF THE MARSHALL ISLANDS-

CITY           SKY/WX    TMP DP  RH WIND       PRES   REMARKS
KWAJALEIN AP   MOSUNNY   88  77  70 SE15      29.79F HX 100
MAJURO AP      NOT AVBL
MAJURO WSO     MOSUNNY   90  79  70 S7        29.80F HX 105

$$



USA.gov is the U.S. government's official web portal to all federal, state and local government web resources and services.